Time,TemperatureF,DewpointF,PressureIn,WindDirection,WindDirectionDegrees,WindSpeedMPH,WindSpeedGustMPH,Humidity,HourlyPrecipIn,Conditions,Clouds,dailyrainin,SolarRadiationWatts/m^2,SoftwareType,DateUTC
2013-02-24 00:05:00,46.8,35.6,29.97,NW,326,5.0,5.0,65,0.00,,,0.00,0,Wunderground v.1.15,2013-02-24 05:05:00,
2013-02-24 00:10:00,46.7,35.9,29.97,NW,319,4.0,8.0,66,0.00,,,0.00,0,Wunderground v.1.15,2013-02-24 05:10:00,
2013-02-24 00:15:00,46.4,35.3,29.97,NW,324,4.0,4.0,65,0.00,,,0.00,0,Wunderground v.1.15,2013-02-24 05:15:00,
2013-02-24 00:20:00,46.2,35.8,29.97,North,351,5.0,6.0,67,0.00,,,0.00,0,Wunderground v.1.15,2013-02-24 05:20:00,
2013-02-24 00:25:00,45.9,36.3,29.97,WNW,301,4.0,4.0,69,0.00,,,0.00,0,Wunderground v.1.15,2013-02-24 05:25:00,
2013-02-24 00:30:00,45.7,37.2,29.97,West,272,5.0,5.0,72,0.00,,,0.00,0,Wunderground v.1.15,2013-02-24 05:30:00,
2013-02-24 00:35:00,45.4,37.6,29.97,NW,320,6.0,6.0,74,0.00,,,0.00,0,Wunderground v.1.15,2013-02-24 05:35:00,
2013-02-24 00:45:00,44.8,38.0,29.98,NW,323,8.0,8.0,77,0.00,,,0.00,0,Wunderground v.1.15,2013-02-24 05:45:00,
2013-02-24 00:50:00,44.5,38.1,29.98,NNW,344,7.0,13.0,78,0.00,,,0.00,0,Wunderground v.1.15,2013-02-24 05:50:00,
2013-02-24 01:00:00,44.2,38.1,29.98,WNW,286,6.0,6.0,79,0.00,,,0.00,0,Wunderground v.1.15,2013-02-24 06:00:00,
2013-02-24 01:10:00,44.0,38.2,29.97,West,275,6.0,6.0,80,0.00,,,0.00,0,Wunderground v.1.15,2013-02-24 06:10:00,
2013-02-24 01:20:00,44.1,39.0,29.97,NW,321,7.0,7.0,82,0.00,,,0.00,0,Wunderground v.1.15,2013-02-24 06:20:00,
2013-02-24 01:30:00,44.3,39.2,29.97,NW,321,9.0,11.0,82,0.00,,,0.00,0,Wunderground v.1.15,2013-02-24 06:30:00,
2013-02-24 01:35:00,44.4,39.2,29.97,SW,225,8.0,11.0,82,0.00,,,0.00,0,Wunderground v.1.15,2013-02-24 06:35:00,
2013-02-24 01:45:00,44.3,39.2,29.96,North,9,7.0,14.0,82,0.00,,,0.00,0,Wunderground v.1.15,2013-02-24 06:45:00,
2013-02-24 01:55:00,44.3,38.8,29.96,NNW,347,8.0,12.0,81,0.00,,,0.00,0,Wunderground v.1.15,2013-02-24 06:55:00,
2013-02-24 02:05:00,44.2,38.7,29.96,NW,313,6.0,7.0,81,0.00,,,0.00,0,Wunderground v.1.15,2013-02-24 07:05:00,
2013-02-24 02:15:00,44.0,38.5,29.96,NW,325,4.0,7.0,81,0.00,,,0.00,0,Wunderground v.1.15,2013-02-24 07:15:00,
2013-02-24 02:20:00,43.9,38.4,29.96,NW,325,4.0,7.0,81,0.00,,,0.00,0,Wunderground v.1.15,2013-02-24 07:20:00,
2013-02-24 02:25:00,43.7,38.6,29.97,NW,326,3.0,3.0,82,0.00,,,0.00,0,Wunderground v.1.15,2013-02-24 07:25:00,
2013-02-24 02:30:00,43.5,38.4,29.97,NW,323,2.0,7.0,82,0.00,,,0.00,0,Wunderground v.1.15,2013-02-24 07:30:00,
2013-02-24 02:35:00,43.3,38.5,29.96,NW,323,1.0,1.0,83,0.00,,,0.00,0,Wunderground v.1.15,2013-02-24 07:35:00,
2013-02-24 02:40:00,43.1,38.3,29.97,WNW,296,1.0,7.0,83,0.00,,,0.00,0,Wunderground v.1.15,2013-02-24 07:40:00,
2013-02-24 02:45:00,42.9,38.1,29.96,NW,317,2.0,7.0,83,0.00,,,0.00,0,Wunderground v.1.15,2013-02-24 07:45:00,
2013-02-24 02:50:00,42.9,37.8,29.96,North,355,3.0,7.0,82,0.00,,,0.00,0,Wunderground v.1.15,2013-02-24 07:50:00,
2013-02-24 03:00:00,43.4,37.3,29.95,West,270,6.0,8.0,79,0.00,,,0.00,0,Wunderground v.1.15,2013-02-24 08:00:00,
2013-02-24 03:10:00,43.7,37.3,29.95,NNW,329,6.0,7.0,78,0.00,,,0.00,0,Wunderground v.1.15,2013-02-24 08:10:00,
2013-02-24 03:15:00,43.8,37.1,29.94,NNW,338,6.0,10.0,77,0.00,,,0.00,0,Wunderground v.1.15,2013-02-24 08:15:00,
2013-02-24 03:25:00,43.8,36.7,29.94,NW,313,7.0,7.0,76,0.00,,,0.00,0,Wunderground v.1.15,2013-02-24 08:25:00,
2013-02-24 03:30:00,43.8,36.7,29.94,West,260,7.0,7.0,76,0.00,,,0.00,0,Wunderground v.1.15,2013-02-24 08:30:00,
2013-02-24 03:35:00,43.7,37.0,29.95,WSW,246,7.0,8.0,77,0.00,,,0.00,0,Wunderground v.1.15,2013-02-24 08:35:00,
2013-02-24 03:40:00,43.6,36.9,29.94,West,277,7.0,7.0,77,0.00,,,0.00,0,Wunderground v.1.15,2013-02-24 08:40:00,
2013-02-24 03:50:00,43.5,36.4,29.95,NW,317,8.0,11.0,76,0.00,,,0.00,0,Wunderground v.1.15,2013-02-24 08:50:00,
2013-02-24 03:55:00,43.4,36.3,29.94,WNW,291,8.0,11.0,76,0.00,,,0.00,0,Wunderground v.1.15,2013-02-24 08:55:00,
2013-02-24 04:01:00,43.3,36.2,29.95,WSW,252,6.0,8.0,76,0.00,,,0.00,0,Wunderground v.1.15,2013-02-24 09:01:00,
2013-02-24 04:10:00,42.8,36.1,29.95,NNW,341,4.0,10.0,77,0.00,,,0.00,0,Wunderground v.1.15,2013-02-24 09:10:00,
2013-02-24 04:20:00,42.3,35.9,29.95,NNW,334,4.0,12.0,78,0.00,,,0.00,0,Wunderground v.1.15,2013-02-24 09:20:00,
2013-02-24 04:25:00,42.1,35.4,29.96,WSW,246,4.0,7.0,77,0.00,,,0.00,0,Wunderground v.1.15,2013-02-24 09:25:00,
2013-02-24 04:30:00,42.0,35.3,29.96,WNW,284,5.0,7.0,77,0.00,,,0.00,0,Wunderground v.1.15,2013-02-24 09:30:00,
2013-02-24 04:35:00,41.8,35.4,29.96,West,269,3.0,7.0,78,0.00,,,0.00,0,Wunderground v.1.15,2013-02-24 09:35:00,
2013-02-24 04:40:00,41.5,35.2,29.96,NNW,340,3.0,7.0,78,0.00,,,0.00,0,Wunderground v.1.15,2013-02-24 09:40:00,
2013-02-24 04:45:00,41.4,35.1,29.97,NNW,331,4.0,7.0,78,0.00,,,0.00,0,Wunderground v.1.15,2013-02-24 09:45:00,
2013-02-24 04:50:00,41.2,34.9,29.97,NNW,341,3.0,9.0,78,0.00,,,0.00,0,Wunderground v.1.15,2013-02-24 09:50:00,
2013-02-24 05:00:00,40.8,34.1,29.97,North,360,5.0,5.0,77,0.00,,,0.00,0,Wunderground v.1.15,2013-02-24 10:00:00,
2013-02-24 05:10:00,40.5,33.5,29.97,WNW,289,6.0,6.0,76,0.00,,,0.00,0,Wunderground v.1.15,2013-02-24 10:10:00,
2013-02-24 05:15:00,40.4,33.1,29.97,NNW,331,7.0,9.0,75,0.00,,,0.00,0,Wunderground v.1.15,2013-02-24 10:15:00,
2013-02-24 05:25:00,40.0,33.0,29.98,West,271,6.0,10.0,76,0.00,,,0.00,0,Wunderground v.1.15,2013-02-24 10:25:00,
2013-02-24 05:30:00,39.8,32.8,29.98,WSW,254,6.0,6.0,76,0.00,,,0.00,0,Wunderground v.1.15,2013-02-24 10:30:00,
2013-02-24 05:40:00,39.6,32.0,29.98,West,268,6.0,8.0,74,0.00,,,0.00,0,Wunderground v.1.15,2013-02-24 10:40:00,
2013-02-24 05:45:00,39.5,31.6,29.98,NNW,330,7.0,16.0,73,0.00,,,0.00,0,Wunderground v.1.15,2013-02-24 10:45:00,
2013-02-24 05:50:00,39.5,31.6,29.98,NW,309,8.0,8.0,73,0.00,,,0.00,0,Wunderground v.1.15,2013-02-24 10:50:00,
2013-02-24 05:55:00,39.3,31.0,29.98,North,350,7.0,8.0,72,0.00,,,0.00,0,Wunderground v.1.15,2013-02-24 10:55:00,
2013-02-24 06:00:00,39.1,31.2,29.98,WSW,248,6.0,11.0,73,0.00,,,0.00,0,Wunderground v.1.15,2013-02-24 11:00:00,
2013-02-24 06:10:00,38.8,30.5,29.99,NW,317,7.0,11.0,72,0.00,,,0.00,0,Wunderground v.1.15,2013-02-24 11:10:00,
2013-02-24 06:20:00,38.7,30.8,30.00,West,264,5.0,12.0,73,0.00,,,0.00,0,Wunderground v.1.15,2013-02-24 11:20:00,
2013-02-24 06:25:00,38.7,30.8,30.01,NW,309,5.0,5.0,73,0.00,,,0.00,0,Wunderground v.1.15,2013-02-24 11:25:00,
2013-02-24 06:35:00,38.6,30.4,30.00,SW,224,5.0,7.0,72,0.00,,,0.00,0,Wunderground v.1.15,2013-02-24 11:35:00,
2013-02-24 06:40:00,38.4,30.5,30.00,WNW,291,5.0,7.0,73,0.00,,,0.00,0,Wunderground v.1.15,2013-02-24 11:40:00,
2013-02-24 06:45:00,38.3,30.4,30.01,WNW,300,3.0,7.0,73,0.00,,,0.00,0,Wunderground v.1.15,2013-02-24 11:45:00,
2013-02-24 06:50:00,38.1,30.2,30.01,NE,43,3.0,7.0,73,0.00,,,0.00,0,Wunderground v.1.15,2013-02-24 11:50:00,
2013-02-24 07:00:00,37.8,30.3,30.01,WNW,284,1.0,7.0,74,0.00,,,0.00,0,Wunderground v.1.15,2013-02-24 12:00:00,
2013-02-24 07:10:00,37.3,30.1,30.02,NNE,15,0.0,7.0,75,0.00,,,0.00,5,Wunderground v.1.15,2013-02-24 12:10:00,
2013-02-24 07:15:00,37.2,30.0,30.02,NW,315,1.0,7.0,75,0.00,,,0.00,7,Wunderground v.1.15,2013-02-24 12:15:00,
2013-02-24 07:20:00,37.1,29.9,30.02,NW,315,0.0,7.0,75,0.00,,,0.00,9,Wunderground v.1.15,2013-02-24 12:20:00,
2013-02-24 07:25:00,37.0,30.1,30.02,WNW,284,1.0,7.0,76,0.00,,,0.00,11,Wunderground v.1.15,2013-02-24 12:25:00,
2013-02-24 07:35:00,36.8,29.9,30.03,WNW,286,1.0,7.0,76,0.00,,,0.00,12,Wunderground v.1.15,2013-02-24 12:35:00,
2013-02-24 07:40:00,36.7,29.8,30.03,NW,307,1.0,1.0,76,0.00,,,0.00,14,Wunderground v.1.15,2013-02-24 12:40:00,
2013-02-24 07:50:00,36.6,30.4,30.03,West,269,1.0,1.0,78,0.00,,,0.00,14,Wunderground v.1.15,2013-02-24 12:50:00,
2013-02-24 07:55:00,36.5,30.3,30.03,West,269,1.0,7.0,78,0.00,,,0.00,16,Wunderground v.1.15,2013-02-24 12:55:00,
2013-02-24 08:00:00,36.4,30.2,30.03,North,9,0.0,7.0,78,0.00,,,0.00,16,Wunderground v.1.15,2013-02-24 13:00:00,
2013-02-24 08:10:00,36.0,30.1,30.03,NW,311,0.0,7.0,79,0.00,,,0.00,23,Wunderground v.1.15,2013-02-24 13:10:00,
2013-02-24 08:20:00,35.9,29.4,30.03,NW,304,1.0,7.0,77,0.00,,,0.00,19,Wunderground v.1.15,2013-02-24 13:20:00,
2013-02-24 08:25:00,36.0,29.5,30.04,WSW,257,1.0,1.0,77,0.00,,,0.00,21,Wunderground v.1.15,2013-02-24 13:25:00,
2013-02-24 08:35:00,36.1,29.3,30.05,West,272,0.0,7.0,76,0.00,,,0.00,21,Wunderground v.1.15,2013-02-24 13:35:00,
2013-02-24 08:40:00,36.2,28.7,30.05,West,272,1.0,7.0,74,0.00,,,0.00,28,Wunderground v.1.15,2013-02-24 13:40:00,
2013-02-24 08:45:00,36.4,28.9,30.04,WSW,250,1.0,7.0,74,0.00,,,0.00,23,Wunderground v.1.15,2013-02-24 13:45:00,
2013-02-24 08:50:00,36.6,28.8,30.04,West,263,2.0,7.0,73,0.00,,,0.00,25,Wunderground v.1.15,2013-02-24 13:50:00,
2013-02-24 09:00:00,36.9,28.7,30.06,NNW,334,1.0,7.0,72,0.00,,,0.00,25,Wunderground v.1.15,2013-02-24 14:00:00,
2013-02-24 09:10:00,37.2,28.7,30.05,NE,44,1.0,1.0,71,0.00,,,0.00,63,Wunderground v.1.15,2013-02-24 14:10:00,
2013-02-24 09:15:00,37.4,28.9,30.06,NW,317,1.0,7.0,71,0.00,,,0.00,144,Wunderground v.1.15,2013-02-24 14:15:00,
2013-02-24 09:25:00,37.9,28.3,30.07,West,266,2.0,7.0,68,0.00,,,0.00,255,Wunderground v.1.15,2013-02-24 14:25:00,
2013-02-24 09:35:00,38.4,27.7,30.07,West,260,3.0,7.0,65,0.00,,,0.00,200,Wunderground v.1.15,2013-02-24 14:35:00,
2013-02-24 09:45:00,38.7,27.9,30.07,WSW,256,1.0,5.0,65,0.00,,,0.00,44,Wunderground v.1.15,2013-02-24 14:45:00,
2013-02-24 09:50:00,38.8,27.7,30.07,NW,317,2.0,2.0,64,0.00,,,0.00,35,Wunderground v.1.15,2013-02-24 14:50:00,
2013-02-24 09:55:00,38.9,27.8,30.06,West,259,2.0,7.0,64,0.00,,,0.00,30,Wunderground v.1.15,2013-02-24 14:55:00,
2013-02-24 10:00:00,39.1,27.6,30.06,ENE,60,1.0,1.0,63,0.00,,,0.00,125,Wunderground v.1.15,2013-02-24 15:00:00,
2013-02-24 10:10:00,39.5,27.5,30.06,NNE,17,2.0,2.0,62,0.00,,,0.00,32,Wunderground v.1.15,2013-02-24 15:10:00,
2013-02-24 10:15:00,39.7,27.7,30.06,NNE,28,2.0,7.0,62,0.00,,,0.00,35,Wunderground v.1.15,2013-02-24 15:15:00,
2013-02-24 10:20:00,39.8,27.8,30.06,NNE,29,1.0,1.0,62,0.00,,,0.00,35,Wunderground v.1.15,2013-02-24 15:20:00,
2013-02-24 10:30:00,40.4,28.4,30.07,WNW,295,2.0,2.0,62,0.00,,,0.00,46,Wunderground v.1.15,2013-02-24 15:30:00,
2013-02-24 10:40:00,40.9,28.5,30.07,WNW,289,1.0,7.0,61,0.00,,,0.00,102,Wunderground v.1.15,2013-02-24 15:40:00,
2013-02-24 10:45:00,41.1,28.3,30.07,WNW,299,2.0,7.0,60,0.00,,,0.00,62,Wunderground v.1.15,2013-02-24 15:45:00,
2013-02-24 10:50:00,41.2,28.8,30.07,NNW,346,3.0,7.0,61,0.00,,,0.00,46,Wunderground v.1.15,2013-02-24 15:50:00,
2013-02-24 11:00:00,41.8,28.5,30.07,SSE,159,3.0,3.0,59,0.00,,,0.00,37,Wunderground v.1.15,2013-02-24 16:00:00,
2013-02-24 11:10:00,42.1,28.8,30.07,NW,309,3.0,7.0,59,0.00,,,0.00,69,Wunderground v.1.15,2013-02-24 16:10:00,
2013-02-24 11:15:00,42.3,28.6,30.08,NE,37,2.0,7.0,58,0.00,,,0.00,135,Wunderground v.1.15,2013-02-24 16:15:00,
2013-02-24 11:25:00,42.9,28.7,30.07,WSW,244,2.0,7.0,57,0.00,,,0.00,364,Wunderground v.1.15,2013-02-24 16:25:00,
2013-02-24 11:30:00,43.2,29.8,30.07,WSW,250,1.0,7.0,59,0.00,,,0.00,461,Wunderground v.1.15,2013-02-24 16:30:00,
2013-02-24 11:35:00,43.7,29.0,30.07,West,264,2.0,7.0,56,0.00,,,0.00,267,Wunderground v.1.15,2013-02-24 16:35:00,
2013-02-24 11:45:00,44.7,29.1,30.07,WNW,292,1.0,7.0,54,0.00,,,0.00,334,Wunderground v.1.15,2013-02-24 16:45:00,
2013-02-24 11:50:00,45.1,28.5,30.07,West,269,1.0,7.0,52,0.00,,,0.00,339,Wunderground v.1.15,2013-02-24 16:50:00,
2013-02-24 12:00:00,45.9,28.3,30.06,NW,307,2.0,7.0,50,0.00,,,0.00,580,Wunderground v.1.15,2013-02-24 17:00:00,
2013-02-24 12:10:00,46.4,28.8,30.06,West,259,3.0,7.0,50,0.00,,,0.00,608,Wunderground v.1.15,2013-02-24 17:10:00,
2013-02-24 12:15:00,46.7,28.5,30.06,WNW,298,3.0,7.0,49,0.00,,,0.00,480,Wunderground v.1.15,2013-02-24 17:15:00,
2013-02-24 12:25:00,47.0,28.8,30.06,SSE,154,4.0,7.0,49,0.00,,,0.00,366,Wunderground v.1.15,2013-02-24 17:25:00,
2013-02-24 12:35:00,47.5,29.3,30.06,WSW,240,3.0,7.0,49,0.00,,,0.00,522,Wunderground v.1.15,2013-02-24 17:35:00,
2013-02-24 12:45:00,47.8,28.0,30.06,NW,319,3.0,7.0,46,0.00,,,0.00,640,Wunderground v.1.15,2013-02-24 17:45:00,
2013-02-24 12:55:00,48.4,28.5,30.06,South,181,4.0,4.0,46,0.00,,,0.00,766,Wunderground v.1.15,2013-02-24 17:55:00,
2013-02-24 13:00:00,48.8,30.0,30.06,West,260,3.0,7.0,48,0.00,,,0.00,768,Wunderground v.1.15,2013-02-24 18:00:00,
2013-02-24 13:10:00,48.9,27.4,30.06,WSW,240,4.0,4.0,43,0.00,,,0.00,766,Wunderground v.1.15,2013-02-24 18:10:00,
2013-02-24 13:20:00,48.9,26.8,30.05,WSW,249,6.0,6.0,42,0.00,,,0.00,761,Wunderground v.1.15,2013-02-24 18:20:00,
2013-02-24 13:25:00,49.1,27.5,30.05,NNW,334,6.0,7.0,43,0.00,,,0.00,758,Wunderground v.1.15,2013-02-24 18:25:00,
2013-02-24 13:35:00,49.3,27.7,30.05,NW,305,5.0,7.0,43,0.00,,,0.00,751,Wunderground v.1.15,2013-02-24 18:35:00,
2013-02-24 13:45:00,49.4,26.1,30.05,North,5,7.0,7.0,40,0.00,,,0.00,740,Wunderground v.1.15,2013-02-24 18:45:00,
2013-02-24 13:50:00,49.4,25.4,30.05,West,261,7.0,7.0,39,0.00,,,0.00,737,Wunderground v.1.15,2013-02-24 18:50:00,
2013-02-24 13:55:00,49.4,26.1,30.05,West,273,7.0,7.0,40,0.00,,,0.00,731,Wunderground v.1.15,2013-02-24 18:55:00,
2013-02-24 14:05:00,49.4,24.8,30.05,WNW,290,8.0,8.0,38,0.00,,,0.00,717,Wunderground v.1.15,2013-02-24 19:05:00,
2013-02-24 14:15:00,49.5,24.9,30.05,WNW,296,7.0,7.0,38,0.00,,,0.00,703,Wunderground v.1.15,2013-02-24 19:15:00,
2013-02-24 14:20:00,49.6,25.6,30.05,West,259,7.0,7.0,39,0.00,,,0.00,694,Wunderground v.1.15,2013-02-24 19:20:00,
2013-02-24 14:25:00,50.1,26.1,30.05,WSW,238,6.0,6.0,39,0.00,,,0.00,686,Wunderground v.1.15,2013-02-24 19:25:00,
2013-02-24 14:35:00,50.1,25.5,30.05,NNW,330,7.0,7.0,38,0.00,,,0.00,668,Wunderground v.1.15,2013-02-24 19:35:00,
2013-02-24 14:40:00,50.3,25.0,30.05,WNW,289,6.0,7.0,37,0.00,,,0.00,657,Wunderground v.1.15,2013-02-24 19:40:00,
2013-02-24 14:45:00,50.4,25.1,30.05,WNW,303,7.0,7.0,37,0.00,,,0.00,647,Wunderground v.1.15,2013-02-24 19:45:00,
2013-02-24 14:50:00,50.6,25.9,30.05,NNW,330,6.0,7.0,38,0.00,,,0.00,635,Wunderground v.1.15,2013-02-24 19:50:00,
2013-02-24 15:00:00,50.7,25.3,30.04,NW,321,6.0,6.0,37,0.00,,,0.00,613,Wunderground v.1.15,2013-02-24 20:00:00,
2013-02-24 15:10:00,50.7,24.0,30.04,WSW,238,6.0,6.0,35,0.00,,,0.00,594,Wunderground v.1.15,2013-02-24 20:10:00,
2013-02-24 15:15:00,50.7,24.0,30.05,West,267,6.0,7.0,35,0.00,,,0.00,578,Wunderground v.1.15,2013-02-24 20:15:00,
2013-02-24 15:20:00,50.5,23.8,30.05,WNW,286,6.0,6.0,35,0.00,,,0.00,568,Wunderground v.1.15,2013-02-24 20:20:00,
2013-02-24 15:30:00,50.6,24.6,30.05,WSW,254,6.0,6.0,36,0.00,,,0.00,540,Wunderground v.1.15,2013-02-24 20:30:00,
2013-02-24 15:40:00,50.5,24.5,30.05,West,276,6.0,6.0,36,0.00,,,0.00,512,Wunderground v.1.15,2013-02-24 20:40:00,
2013-02-24 15:45:00,50.7,24.7,30.05,WNW,298,5.0,7.0,36,0.00,,,0.00,497,Wunderground v.1.15,2013-02-24 20:45:00,
2013-02-24 15:50:00,50.6,23.9,30.05,West,265,6.0,6.0,35,0.00,,,0.00,485,Wunderground v.1.15,2013-02-24 20:50:00,
2013-02-24 15:55:00,50.5,24.5,30.05,West,279,6.0,7.0,36,0.00,,,0.00,469,Wunderground v.1.15,2013-02-24 20:55:00,
2013-02-24 16:05:00,51.0,24.3,30.06,North,360,3.0,10.0,35,0.00,,,0.00,438,Wunderground v.1.15,2013-02-24 21:05:00,
2013-02-24 16:15:00,50.9,24.2,30.06,West,273,4.0,4.0,35,0.00,,,0.00,406,Wunderground v.1.15,2013-02-24 21:15:00,
2013-02-24 16:25:00,50.6,24.6,30.06,WSW,252,4.0,9.0,36,0.00,,,0.00,374,Wunderground v.1.15,2013-02-24 21:25:00,
2013-02-24 16:30:00,50.5,25.2,30.06,SW,225,4.0,9.0,37,0.00,,,0.00,353,Wunderground v.1.15,2013-02-24 21:30:00,
2013-02-24 16:40:00,50.5,25.2,30.06,SSE,162,4.0,8.0,37,0.00,,,0.00,323,Wunderground v.1.15,2013-02-24 21:40:00,
2013-02-24 16:45:00,50.6,26.5,30.07,South,181,3.0,7.0,39,0.00,,,0.00,306,Wunderground v.1.15,2013-02-24 21:45:00,
2013-02-24 16:55:00,50.8,26.1,30.07,NW,309,2.0,7.0,38,0.00,,,0.00,272,Wunderground v.1.15,2013-02-24 21:55:00,
2013-02-24 17:00:00,50.9,25.5,30.07,NW,306,2.0,2.0,37,0.00,,,0.00,255,Wunderground v.1.15,2013-02-24 22:00:00,
2013-02-24 17:10:00,50.3,26.3,30.07,NW,306,3.0,7.0,39,0.00,,,0.00,223,Wunderground v.1.15,2013-02-24 22:10:00,
2013-02-24 17:20:00,49.4,24.8,30.07,WNW,286,4.0,7.0,38,0.00,,,0.00,188,Wunderground v.1.15,2013-02-24 22:20:00,
2013-02-24 17:25:00,49.2,25.9,30.07,South,186,3.0,3.0,40,0.00,,,0.00,171,Wunderground v.1.15,2013-02-24 22:25:00,
2013-02-24 17:35:00,48.6,25.9,30.08,NNW,346,3.0,3.0,41,0.00,,,0.00,132,Wunderground v.1.15,2013-02-24 22:35:00,
2013-02-24 17:45:00,47.9,25.9,30.08,WNW,286,3.0,7.0,42,0.00,,,0.00,93,Wunderground v.1.15,2013-02-24 22:45:00,
2013-02-24 17:50:00,47.7,26.3,30.08,WSW,249,2.0,7.0,43,0.00,,,0.00,74,Wunderground v.1.15,2013-02-24 22:50:00,
2013-02-24 18:05:00,47.0,26.7,30.09,WSW,238,1.0,7.0,45,0.00,,,0.00,11,Wunderground v.1.15,2013-02-24 23:05:00,
2013-02-24 18:10:00,46.7,25.9,30.09,NW,326,2.0,7.0,44,0.00,,,0.00,7,Wunderground v.1.15,2013-02-24 23:10:00,
2013-02-24 18:15:00,46.1,26.4,30.09,WNW,294,2.0,7.0,46,0.00,,,0.00,5,Wunderground v.1.15,2013-02-24 23:15:00,
2013-02-24 18:20:00,45.4,25.8,30.09,NW,314,2.0,7.0,46,0.00,,,0.00,0,Wunderground v.1.15,2013-02-24 23:20:00,
2013-02-24 18:25:00,44.9,25.9,30.09,WNW,303,2.0,2.0,47,0.00,,,0.00,0,Wunderground v.1.15,2013-02-24 23:25:00,
2013-02-24 18:35:00,44.0,25.5,30.10,North,355,2.0,7.0,48,0.00,,,0.00,0,Wunderground v.1.15,2013-02-24 23:35:00,
2013-02-24 18:40:00,43.7,25.8,30.10,NW,317,2.0,7.0,49,0.00,,,0.00,0,Wunderground v.1.15,2013-02-24 23:40:00,
2013-02-24 18:50:00,43.2,25.3,30.11,NW,313,0.0,7.0,49,0.00,,,0.00,0,Wunderground v.1.15,2013-02-24 23:50:00,
2013-02-24 18:55:00,42.9,25.5,30.11,WSW,252,1.0,7.0,50,0.00,,,0.00,0,Wunderground v.1.15,2013-02-24 23:55:00,
2013-02-24 19:00:00,42.7,25.8,30.11,WSW,252,0.0,7.0,51,0.00,,,0.00,0,Wunderground v.1.15,2013-02-25 00:00:00,
2013-02-24 19:10:00,42.0,26.5,30.12,WSW,251,0.0,7.0,54,0.00,,,0.00,0,Wunderground v.1.15,2013-02-25 00:10:00,
2013-02-24 19:15:00,41.5,26.5,30.12,WSW,251,0.0,7.0,55,0.00,,,0.00,0,Wunderground v.1.15,2013-02-25 00:15:00,
2013-02-24 19:20:00,41.1,27.0,30.12,WSW,252,0.0,7.0,57,0.00,,,0.00,0,Wunderground v.1.15,2013-02-25 00:20:00,
2013-02-24 19:30:00,40.4,25.5,30.13,WSW,237,1.0,7.0,55,0.00,,,0.00,0,Wunderground v.1.15,2013-02-25 00:30:00,
2013-02-24 19:35:00,40.4,25.5,30.13,WSW,237,1.0,1.0,55,0.00,,,0.00,0,Wunderground v.1.15,2013-02-25 00:35:00,
2013-02-24 19:45:00,40.4,25.5,30.12,WNW,291,0.0,7.0,55,0.00,,,0.00,0,Wunderground v.1.15,2013-02-25 00:45:00,
2013-02-24 19:50:00,40.4,25.1,30.13,NNW,340,1.0,7.0,54,0.00,,,0.00,0,Wunderground v.1.15,2013-02-25 00:50:00,
2013-02-24 20:00:00,40.4,24.6,30.13,NW,313,2.0,2.0,53,0.00,,,0.00,0,Wunderground v.1.15,2013-02-25 01:00:00,
2013-02-24 20:10:00,40.6,24.8,30.13,NNE,18,2.0,7.0,53,0.00,,,0.00,0,Wunderground v.1.15,2013-02-25 01:10:00,
2013-02-24 20:15:00,40.6,24.8,30.13,North,355,1.0,7.0,53,0.00,,,0.00,0,Wunderground v.1.15,2013-02-25 01:15:00,
2013-02-24 20:20:00,40.6,24.8,30.13,North,355,1.0,1.0,53,0.00,,,0.00,0,Wunderground v.1.15,2013-02-25 01:20:00,
2013-02-24 20:25:00,40.5,25.1,30.13,North,355,0.0,2.0,54,0.00,,,0.00,0,Wunderground v.1.15,2013-02-25 01:25:00,
2013-02-24 20:30:00,40.2,25.3,30.14,North,355,0.0,7.0,55,0.00,,,0.00,0,Wunderground v.1.15,2013-02-25 01:30:00,
2013-02-24 20:39:00,39.9,24.6,30.14,NNW,342,0.0,7.0,54,0.00,,,0.00,0,Wunderground v.1.15,2013-02-25 01:39:00,
2013-02-24 20:45:00,39.7,24.0,30.14,NNE,12,1.0,7.0,53,0.00,,,0.00,0,Wunderground v.1.15,2013-02-25 01:45:00,
2013-02-24 20:55:00,39.5,23.8,30.14,North,10,0.0,7.0,53,0.00,,,0.00,0,Wunderground v.1.15,2013-02-25 01:55:00,
2013-02-24 21:05:00,39.1,24.3,30.14,North,10,0.0,7.0,55,0.00,,,0.00,0,Wunderground v.1.15,2013-02-25 02:05:00,
2013-02-24 21:15:00,38.4,23.6,30.14,NNE,19,0.0,7.0,55,0.00,,,0.00,0,Wunderground v.1.15,2013-02-25 02:15:00,
2013-02-24 21:20:00,38.1,22.9,30.14,North,360,0.0,7.0,54,0.00,,,0.00,0,Wunderground v.1.15,2013-02-25 02:20:00,
2013-02-24 21:25:00,38.0,22.8,30.14,North,350,1.0,1.0,54,0.00,,,0.00,0,Wunderground v.1.15,2013-02-25 02:25:00,
2013-02-24 21:35:00,37.9,22.3,30.14,North,355,1.0,7.0,53,0.00,,,0.00,0,Wunderground v.1.15,2013-02-25 02:35:00,
2013-02-24 21:45:00,37.9,22.3,30.14,NNW,330,1.0,1.0,53,0.00,,,0.00,0,Wunderground v.1.15,2013-02-25 02:45:00,
2013-02-24 21:50:00,37.9,22.3,30.14,NW,304,1.0,3.0,53,0.00,,,0.00,0,Wunderground v.1.15,2013-02-25 02:50:00,
2013-02-24 22:05:00,37.8,22.2,30.14,NNW,340,2.0,2.0,53,0.00,,,0.00,0,Wunderground v.1.15,2013-02-25 03:05:00,
2013-02-24 22:10:00,37.8,21.7,30.14,North,355,2.0,7.0,52,0.00,,,0.00,0,Wunderground v.1.15,2013-02-25 03:10:00,
2013-02-24 22:20:00,37.6,22.9,30.14,North,355,0.0,7.0,55,0.00,,,0.00,0,Wunderground v.1.15,2013-02-25 03:20:00,
2013-02-24 22:25:00,37.3,21.7,30.13,NNW,341,1.0,7.0,53,0.00,,,0.00,0,Wunderground v.1.15,2013-02-25 03:25:00,
2013-02-24 22:35:00,37.3,21.7,30.13,NW,313,1.0,7.0,53,0.00,,,0.00,0,Wunderground v.1.15,2013-02-25 03:35:00,
2013-02-24 22:40:00,37.3,23.4,30.13,NW,313,1.0,7.0,57,0.00,,,0.00,0,Wunderground v.1.15,2013-02-25 03:40:00,
2013-02-24 22:45:00,37.0,22.3,30.13,NNE,25,1.0,1.0,55,0.00,,,0.00,0,Wunderground v.1.15,2013-02-25 03:45:00,
2013-02-24 22:50:00,36.8,23.0,30.13,NNE,26,1.0,7.0,57,0.00,,,0.00,0,Wunderground v.1.15,2013-02-25 03:50:00,
2013-02-24 23:05:00,35.3,22.8,30.13,NNE,26,0.0,7.0,60,0.00,,,0.00,0,Wunderground v.1.15,2013-02-25 04:05:00,
2013-02-24 23:15:00,34.4,22.3,30.13,NNE,26,0.0,7.0,61,0.00,,,0.00,0,Wunderground v.1.15,2013-02-25 04:15:00,
2013-02-24 23:20:00,34.1,22.8,30.13,NNE,26,0.0,7.0,63,0.00,,,0.00,0,Wunderground v.1.15,2013-02-25 04:20:00,
2013-02-24 23:30:00,33.9,21.9,30.14,NNE,26,0.0,7.0,61,0.00,,,0.00,0,Wunderground v.1.15,2013-02-25 04:30:00,
2013-02-24 23:40:00,34.1,22.4,30.14,NNE,26,0.0,7.0,62,0.00,,,0.00,0,Wunderground v.1.15,2013-02-25 04:40:00,
2013-02-24 23:45:00,34.1,22.4,30.14,NNE,26,0.0,7.0,62,0.00,,,0.00,0,Wunderground v.1.15,2013-02-25 04:45:00,
2013-02-24 23:50:00,33.9,23.0,30.14,NNE,26,0.0,7.0,64,0.00,,,0.00,0,Wunderground v.1.15,2013-02-25 04:50:00,
2013-02-24 23:55:00,33.7,22.4,30.14,NNE,26,0.0,7.0,63,0.00,,,0.00,0,Wunderground v.1.15,2013-02-25 04:55:00,